Stations météo

réclame
Mon MeteoGroup
Elsenborn, Belgique (6496): Température de l'air & dewpoint: 20.10.2020 22:00:00 - 26.10.2020 22:00:00 (CET)Elsenborn, Belgique (6496): Vitesse du vent & gusts: 20.10.2020 22:00:00 - 26.10.2020 22:00:00 (CET)Elsenborn, Belgique (6496): Direction du vent: 20.10.2020 22:00:00 - 26.10.2020 22:00:00 (CET)Elsenborn, Belgique (6496): reduced air pressure: 20.10.2020 22:00:00 - 26.10.2020 22:00:00 (CET)Elsenborn, Belgique (6496): visibility: 20.10.2020 22:00:00 - 26.10.2020 22:00:00 (CET)
Date & Time tt [°C] td [°C] ff [km/h] ff [knt] fx [km/h] fx [knt] dd ppp [hPa] vv [km]
26.10.2020 22:00:00 - - - - - - - - -
26.10.2020 21:00:00 6,4 4,8 11 6 29 16 SSW 1005,2 20
26.10.2020 20:00:00 6,4 4,6 15 8 29 16 SSW 1005,1 10
26.10.2020 19:00:00 6,4 4,2 14 8 - - SW 1004,6 20
26.10.2020 18:00:00 7,0 4,1 11 6 29 16 SSW 1004,2 20
26.10.2020 17:00:00 7,5 3,8 11 6 32 18 SSW 1003,8 20
26.10.2020 16:00:00 7,8 3,2 14 8 - - SSW 1004,0 20
26.10.2020 15:00:00 7,8 2,8 14 8 36 19 SSW 1003,7 20
26.10.2020 14:00:00 8,0 2,6 22 12 40 21 SW 1003,1 20
26.10.2020 13:00:00 7,9 3,3 22 12 - - SW 1003,2 20
26.10.2020 12:00:00 7,3 3,4 18 10 43 23 WSW 1003,2 20
26.10.2020 11:00:00 7,0 3,0 24 13 - - SW - 10
26.10.2020 10:00:00 6,8 4,4 22 12 - - SW 1003,6 20
26.10.2020 09:00:00 6,3 4,9 14 8 29 16 SW 1003,0 20
26.10.2020 08:00:00 6,1 4,9 18 10 36 19 WSW 1002,7 20
26.10.2020 07:00:00 6,5 5,6 14 8 - - SW 1002,2 20
26.10.2020 06:00:00 6,5 5,9 11 6 22 12 SW 1002,1 20
26.10.2020 05:00:00 6,9 6,1 11 6 18 10 SSW 1002,7 12
26.10.2020 04:00:00 6,9 6,0 11 6 - - SW 1002,6 20
26.10.2020 03:00:00 7,0 6,4 11 6 22 12 SSW 1002,5 20
26.10.2020 02:00:00 7,0 6,0 11 6 29 16 SW 1001,8 20
26.10.2020 01:00:00 7,8 7,2 14 8 - - SW 1002,3 20
26.10.2020 00:00:00 8,0 7,1 14 8 25 14 SSW 1002,6 20
25.10.2020 23:00:00 7,8 7,0 11 6 32 18 SSW 1003,0 20
25.10.2020 22:00:00 7,9 7,0 14 8 - - SW 1003,2 20
25.10.2020 21:00:00 8,0 7,3 14 8 32 18 SSW 1003,2 20
25.10.2020 20:00:00 8,3 7,2 14 8 32 18 SSW 1003,7 20
25.10.2020 19:00:00 8,3 7,4 18 10 - - SW 1004,2 20
25.10.2020 18:00:00 8,6 7,8 11 6 29 16 SSW 1003,2 20
25.10.2020 17:00:00 8,8 8,1 14 8 29 16 SSW 1003,6 18
25.10.2020 16:00:00 9,1 8,4 11 6 - - SSW 1003,2 20
25.10.2020 15:00:00 9,3 8,7 14 8 29 16 S 1003,1 19
25.10.2020 14:00:00 9,1 8,7 14 8 32 18 SW 1003,8 11
25.10.2020 13:00:00 9,3 8,6 14 8 - - SSW 1004,1 10
25.10.2020 12:00:00 9,3 8,4 14 8 36 19 SSW 1004,7 19
25.10.2020 11:00:00 10,1 7,8 18 10 40 21 SSW 1004,0 20
25.10.2020 10:00:00 9,6 7,7 18 10 - - SSW 1004,2 20
25.10.2020 09:00:00 9,6 7,6 22 12 40 21 SSW 1005,2 20
25.10.2020 08:00:00 9,6 7,6 22 12 40 21 SSW 1005,1 20
25.10.2020 07:00:00 9,5 7,9 18 10 - - SSW 1005,2 10
25.10.2020 06:00:00 9,6 8,3 22 12 47 25 S 1005,3 20
25.10.2020 05:00:00 9,5 8,5 22 12 43 23 S 1005,5 20
25.10.2020 04:00:00 9,8 8,8 18 10 - - SSW 1006,7 15
25.10.2020 03:00:00 10,5 9,0 14 8 40 21 SSW 1007,1 20
25.10.2020 02:00:00 10,6 9,1 14 8 40 21 SSW 1007,6 20
25.10.2020 01:00:00 - - - - - - - - -
25.10.2020 00:00:00 10,8 9,5 14 8 40 21 SSW 1009,2 20
24.10.2020 23:00:00 10,6 9,8 22 12 47 25 SSW 1009,5 17
24.10.2020 22:00:00 10,8 9,8 18 10 - - SSW 1009,7 20
24.10.2020 21:00:00 10,8 10,0 22 12 47 25 SSW 1010,2 9
24.10.2020 20:00:00 10,6 10,1 18 10 40 21 SSW 1010,7 13
24.10.2020 19:00:00 10,6 10,0 18 10 - - SSW 1011,5 10
24.10.2020 18:00:00 10,5 9,9 22 12 40 21 SSW 1011,8 20
24.10.2020 17:00:00 10,5 9,8 16 9 36 19 SSW 1012,1 9
24.10.2020 16:00:00 10,4 9,9 18 10 - - SSW 1012,6 4,6
24.10.2020 15:00:00 10,3 9,6 18 10 36 19 SSW 1013,1 7
24.10.2020 14:00:00 10,1 9,5 15 8 36 19 SSW 1013,6 8
24.10.2020 13:00:00 10,1 8,7 18 10 - - SW 1014,0 20
24.10.2020 12:00:00 9,8 8,3 18 10 36 19 SSW 1014,7 20
24.10.2020 11:00:00 9,3 8,7 18 10 43 23 SW 1014,7 5
24.10.2020 10:00:00 9,4 8,1 18 10 - - SSW 1014,3 20
24.10.2020 09:00:00 - - - - - - - - -
24.10.2020 08:00:00 - - - - - - - - -
24.10.2020 07:00:00 - - - - - - - - -
24.10.2020 06:00:00 - - - - - - - - -
24.10.2020 05:00:00 - - - - - - - - -
24.10.2020 04:00:00 - - - - - - - - -
24.10.2020 03:00:00 - - - - - - - - -
24.10.2020 02:00:00 - - - - - - - - -
24.10.2020 01:00:00 - - - - - - - - -
24.10.2020 00:00:00 - - - - - - - - -
23.10.2020 23:00:00 - - - - - - - - -
23.10.2020 22:00:00 - - - - - - - - -
23.10.2020 21:00:00 - - - - - - - - -
23.10.2020 20:00:00 - - - - - - - - -
23.10.2020 19:00:00 - - - - - - - - -
23.10.2020 18:00:00 - - - - - - - - -
23.10.2020 17:00:00 - - - - - - - - -
23.10.2020 16:00:00 - - - - - - - - -
23.10.2020 15:00:00 - - - - - - - - -
23.10.2020 14:00:00 - - - - - - - - -
23.10.2020 13:00:00 - - - - - - - - -
23.10.2020 12:00:00 - - - - - - - - -
23.10.2020 11:00:00 - - - - - - - - -
23.10.2020 10:00:00 - - - - - - - - -
23.10.2020 09:00:00 - - - - - - - - -
23.10.2020 08:00:00 - - - - - - - - -
23.10.2020 07:00:00 11,8 11,8 7 4 - - SW 1011,3 18
23.10.2020 06:00:00 11,9 11,6 7 4 18 10 SSW 1011,7 12
23.10.2020 05:00:00 12,1 11,6 7 4 14 8 SW 1012,0 11
23.10.2020 04:00:00 12,3 11,6 7 4 - - SSW 1012,3 20
23.10.2020 03:00:00 12,3 11,6 7 4 18 10 SSW 1012,7 17
23.10.2020 02:00:00 12,5 11,5 7 4 22 12 SW 1013,2 19
23.10.2020 01:00:00 12,6 11,7 11 6 - - SW 1013,2 18
23.10.2020 00:00:00 12,6 11,9 11 6 18 10 SSW 1013,2 15
22.10.2020 23:00:00 12,5 11,9 5 3 18 10 SW 1013,6 10
22.10.2020 22:00:00 12,3 11,6 11 6 - - SW 1013,7 16
22.10.2020 21:00:00 12,3 11,5 11 6 22 12 SW 1013,5 20
22.10.2020 20:00:00 12,5 11,5 11 6 22 12 SW 1013,3 20
22.10.2020 19:00:00 12,8 11,7 11 6 - - SSW 1013,3 20
22.10.2020 18:00:00 13,6 12,5 14 8 25 14 SW 1013,0 12
22.10.2020 17:00:00 14,8 11,1 14 8 29 16 SW 1012,1 20
22.10.2020 16:00:00 15,6 11,6 18 10 - - SSW 1011,7 20
22.10.2020 15:00:00 15,8 11,9 14 8 29 16 SW 1011,7 20
22.10.2020 14:00:00 15,3 11,5 14 8 36 19 SW 1012,2 20
22.10.2020 13:00:00 15,0 11,1 18 10 - - SW 1012,6 20
22.10.2020 12:00:00 14,8 11,4 - - 0 0 - 1012,8 20
22.10.2020 11:00:00 - - - - 0 0 - - -
22.10.2020 10:00:00 12,8 11,2 16 9 - - SSW 1013,7 10
22.10.2020 09:00:00 12,3 10,8 18 10 36 19 SW 1013,3 20
22.10.2020 08:00:00 11,8 11,1 11 6 25 14 SW 1012,7 20
22.10.2020 07:00:00 12,2 11,5 11 6 - - SSW 1011,8 20
22.10.2020 06:00:00 12,5 11,5 14 8 25 14 SSW 1011,7 20
22.10.2020 05:00:00 12,4 11,2 14 8 29 16 SSW 1011,6 20
22.10.2020 04:00:00 12,5 11,2 18 10 - - SSW 1011,5 20
22.10.2020 03:00:00 12,6 11,1 14 8 32 18 SW 1011,2 20
22.10.2020 02:00:00 12,9 11,1 14 8 29 16 SW 1011,2 20
22.10.2020 01:00:00 13,0 11,2 14 8 - - SW 1010,7 20
22.10.2020 00:00:00 13,2 11,0 14 8 36 19 SW 1010,1 20
21.10.2020 23:00:00 13,6 10,6 18 10 36 19 SW 1009,5 20
21.10.2020 22:00:00 14,3 10,6 22 12 - - SW 1008,7 20
21.10.2020 21:00:00 15,2 11,0 25 14 50 27 SW 1008,0 20
21.10.2020 20:00:00 15,5 11,1 18 10 50 27 SW 1007,2 20
21.10.2020 19:00:00 15,6 10,5 25 14 - - SW 1006,3 20
21.10.2020 18:00:00 15,9 10,5 25 14 50 27 SW 1005,5 20
21.10.2020 17:00:00 16,5 10,3 22 12 58 31 SW 1004,6 20
21.10.2020 16:00:00 17,0 10,2 29 16 - - SW 1003,6 20
21.10.2020 15:00:00 16,7 9,6 22 12 58 31 SSW 1003,2 20
21.10.2020 14:00:00 17,2 9,5 22 12 47 25 SSW 1002,7 20
21.10.2020 13:00:00 15,3 8,5 22 12 - - SSW 1003,2 20
21.10.2020 12:00:00 13,6 7,6 18 10 50 27 SSW 1004,2 20
21.10.2020 11:00:00 12,8 6,9 25 14 54 29 S 1004,7 20
21.10.2020 10:00:00 11,0 6,8 18 10 - - S 1005,3 20
21.10.2020 09:00:00 9,6 6,9 11 6 29 16 SSW 1006,2 20
21.10.2020 08:00:00 9,1 7,7 14 8 32 18 S 1006,2 20
21.10.2020 07:00:00 8,8 8,3 14 8 - - S 1006,6 5
21.10.2020 06:00:00 9,1 7,9 14 8 29 16 S 1006,5 11
21.10.2020 05:00:00 9,1 7,6 11 6 29 16 S 1006,1 20
21.10.2020 04:00:00 9,1 7,6 11 6 - - S 1006,8 10
21.10.2020 03:00:00 9,3 8,1 11 6 29 16 S 1007,5 20
21.10.2020 02:00:00 9,8 8,7 11 6 25 14 S 1008,2 20
21.10.2020 01:00:00 9,8 9,3 11 6 - - S 1008,7 8
21.10.2020 00:00:00 10,1 9,6 11 6 18 10 S 1009,0 7
20.10.2020 23:00:00 10,3 9,8 7 4 22 12 S 1009,3 6
20.10.2020 22:00:00 10,4 9,8 13 7 - - S 1009,7 10

tt = Température de l'air
td = dewpoint
ff = Vitesse du vent
fx = gusts
dd = Direction du vent
ppp = reduced air pressure
vv = visibility

stations d'obs. à proximité